DW6979 Svarstad NO current weather conditions

sailwx.info

Wind from 335

Air temperature 16.7° C
Dewpoint 13.9° C

Last reported at 2019-Aug-24 08:01 UTC.
Time now 2019-Aug-24 08:55 UTC

Location: N 59°26' E 010°00'.
View on Google Maps.

See reports from other nearby stations

  
Tides and Currents Weather Stations Pressure Air Temp Water Temp Dewpoint Dewpoint Depression Visibility Wind Speed Wind Dir Waves Ship Positions
date/time (UTC)wind fromknots sea level pressurealtimeterstation pressurevisibilityair tempwater tempwave heightnotes
2019-Aug-24 08:01 335 16.7
2019-Aug-24 07:45 331 16.1
2019-Aug-24 07:30 289 15.0
2019-Aug-24 07:15 348 13.9
2019-Aug-24 07:00 005 13.3
2019-Aug-24 06:45 198 12.8
2019-Aug-24 06:30 198 12.2
2019-Aug-24 06:15 198 11.1
2019-Aug-24 06:02 198 10.6
2019-Aug-24 05:47 198 10.0
2019-Aug-24 05:31 198 9.4
2019-Aug-24 05:16 198 8.9
2019-Aug-24 05:01 198 8.9
2019-Aug-24 04:46 198 8.9
2019-Aug-24 04:31 198 8.9
2019-Aug-24 04:16 198 8.9
2019-Aug-24 04:02 198 8.9
2019-Aug-24 03:47 198 8.9
2019-Aug-24 03:31 198 9.4
2019-Aug-24 03:16 198 9.4
2019-Aug-24 03:01 198 9.4
2019-Aug-24 02:45 198 9.4
2019-Aug-24 02:31 198 9.4
2019-Aug-24 02:15 198 10.0
2019-Aug-24 02:01 198 10.0
2019-Aug-24 01:46 198 10.6
2019-Aug-24 01:30 198 10.6
2019-Aug-24 01:15 198 10.6
2019-Aug-24 01:00 198 10.6
2019-Aug-24 00:45 198 11.1
2019-Aug-24 00:30 198 11.1
2019-Aug-24 00:15 198 11.7
2019-Aug-24 00:00 198 11.7
2019-Aug-23 23:45 198 11.7
2019-Aug-23 23:30 198 12.2
2019-Aug-23 23:16 198 12.2
2019-Aug-23 23:02 198 12.8
2019-Aug-23 22:47 198 12.8
2019-Aug-23 22:32 198 12.8
2019-Aug-23 22:16 208 0 gusting 2 13.3
2019-Aug-23 22:01 197 0 gusting 3 13.3
2019-Aug-23 21:47 195 13.9
2019-Aug-23 21:31 196 13.9
2019-Aug-23 21:16 196 14.4
2019-Aug-23 21:02 195 14.4
2019-Aug-23 20:46 233 13.9
2019-Aug-23 20:31 202 13.9
2019-Aug-23 20:16 202 0 gusting 2 13.9
2019-Aug-23 19:45 202 14.4
2019-Aug-23 19:31 202 14.4
2019-Aug-23 19:16 202 15.0
2019-Aug-23 19:01 202 15.6
2019-Aug-23 18:46 178 16.1
2019-Aug-23 18:31 176 16.1
2019-Aug-23 18:15 166 16.7
2019-Aug-23 18:00 207 17.2
2019-Aug-23 17:47 207 17.8
2019-Aug-23 17:31 151 19.4
2019-Aug-23 17:16 071 19.4
2019-Aug-23 17:00 192 20.6
2019-Aug-23 16:45 245 21.1
2019-Aug-23 16:30 156 21.7
2019-Aug-23 16:15 202 1 gusting 4 21.7
2019-Aug-23 16:00 151 0 gusting 5 22.2
2019-Aug-23 15:45 180 22.2
2019-Aug-23 15:30 229 22.2
2019-Aug-23 15:15 192 1 gusting 4 22.8
2019-Aug-23 15:00 181 3 gusting 6 22.8
2019-Aug-23 14:45 202 1 gusting 7 22.2
2019-Aug-23 14:30 168 4 gusting 8 22.8
2019-Aug-23 14:15 204 0 gusting 7 22.8
2019-Aug-23 14:00 209 2 gusting 8 22.2
2019-Aug-23 13:45 219 21.7
2019-Aug-23 13:30 250 21.7
2019-Aug-23 13:15 177 0 gusting 4 22.2
2019-Aug-23 12:46 231 21.7
2019-Aug-23 12:31 137 22.2
2019-Aug-23 12:16 042 22.2
2019-Aug-23 12:02 172 1 gusting 10 21.7
2019-Aug-23 11:48 219 3 gusting 8 21.7
2019-Aug-23 11:31 177 5 gusting 9 21.1
2019-Aug-23 11:16 225 2 gusting 6 21.1
2019-Aug-23 11:00 221 20.6
2019-Aug-23 10:46 187 0 gusting 6 20.6
2019-Aug-23 10:30 205 0 gusting 5 19.4
2019-Aug-23 10:15 193 2 gusting 6 18.9
2019-Aug-23 10:00 184 0 gusting 4 17.8
2019-Aug-23 09:46 187 0 gusting 6 17.8
2019-Aug-23 09:30 173 4 gusting 9 17.8
2019-Aug-23 09:15 205 4 gusting 8 17.8
2019-Aug-23 09:00 208 4 gusting 8 17.2
2019-Aug-23 08:45 165 4 gusting 7 17.2
2019-Aug-23 08:30 196 2 gusting 7 17.2
2019-Aug-23 08:15 190 0 gusting 6 17.2
2019-Aug-23 08:00 188 0 gusting 5 16.7
2019-Aug-23 07:45 197 0 gusting 4 16.1
2019-Aug-23 07:30 212 15.6
2019-Aug-23 07:15 179 15.6
2019-Aug-23 07:00 183 15.0
2019-Aug-23 06:46 183 15.0
2019-Aug-23 06:31 183 14.4
2019-Aug-23 06:17 182 13.9
2019-Aug-23 06:01 182 13.9
2019-Aug-23 05:46 182 13.3
2019-Aug-23 05:31 182 13.3
2019-Aug-23 05:16 182 13.3
2019-Aug-23 05:01 182 12.8
2019-Aug-23 04:45 182 12.8
2019-Aug-23 04:31 182 12.8
2019-Aug-23 04:16 182 12.8
2019-Aug-23 04:01 182 12.8
2019-Aug-23 03:46 182 12.8
2019-Aug-23 03:31 182 12.8
2019-Aug-23 03:15 182 12.2
2019-Aug-23 03:01 182 12.2
2019-Aug-23 02:45 182 12.2
2019-Aug-23 02:30 182 12.2
2019-Aug-23 02:15 182 12.2
2019-Aug-23 02:00 182 12.2
2019-Aug-23 01:45 182 12.2
2019-Aug-23 01:30 182 12.2
2019-Aug-23 01:15 182 12.2
2019-Aug-23 01:00 182 12.2
2019-Aug-23 00:45 182 12.2
2019-Aug-23 00:30 182 12.2
2019-Aug-23 00:15 182 12.2
2019-Aug-23 00:00 182 11.7
2019-Aug-22 23:45 182 11.7
2019-Aug-22 23:30 194 11.7
2019-Aug-22 23:15 194 11.1
2019-Aug-22 23:00 194 11.1
2019-Aug-22 22:32 165 11.7
2019-Aug-22 22:16 165 12.2
2019-Aug-22 22:01 165 12.2
2019-Aug-22 21:47 180 1 gusting 5 12.8
2019-Aug-22 21:31 184 0 gusting 4 12.2
2019-Aug-22 21:17 178 1 gusting 4 12.2
2019-Aug-22 21:01 176 1 gusting 6 12.8
2019-Aug-22 20:32 180 2 gusting 6 12.8
2019-Aug-22 20:16 184 1 gusting 5 12.8
2019-Aug-22 20:01 173 1 gusting 5 12.8
2019-Aug-22 19:46 181 0 gusting 6 12.8
2019-Aug-22 19:31 192 1 gusting 4 12.8
2019-Aug-22 19:16 192 0 gusting 4 12.8
2019-Aug-22 19:01 188 1 gusting 3 13.3
2019-Aug-22 18:46 198 0 gusting 4 13.9
2019-Aug-22 18:31 202 1 gusting 7 13.9
2019-Aug-22 18:16 204 3 gusting 7 14.4
2019-Aug-22 18:01 165 4 gusting 8 14.4
2019-Aug-22 17:45 191 4 gusting 9 14.4
2019-Aug-22 17:31 194 1 gusting 6 15.0
2019-Aug-22 17:17 184 3 gusting 7 15.0
2019-Aug-22 17:01 188 2 gusting 6 15.0
2019-Aug-22 16:46 219 2 gusting 6 15.0
2019-Aug-22 16:31 199 4 gusting 8 15.0
2019-Aug-22 16:16 202 15.0
2019-Aug-22 16:02 178 2 gusting 6 15.0
2019-Aug-22 15:46 200 1 gusting 7 15.0
2019-Aug-22 15:30 196 4 gusting 9 15.6
2019-Aug-22 15:16 190 4 gusting 10 15.0
2019-Aug-22 15:01 181 4 gusting 12 15.0
2019-Aug-22 14:45 204 5 gusting 10 14.4
2019-Aug-22 14:31 193 3 gusting 7 14.4
2019-Aug-22 14:15 192 2 gusting 9 15.0
2019-Aug-22 14:00 165 3 gusting 10 14.4
2019-Aug-22 13:45 218 4 gusting 13 14.4
2019-Aug-22 13:30 180 3 gusting 11 14.4
2019-Aug-22 13:16 198 2 gusting 8 14.4
2019-Aug-22 13:00 204 14.4
2019-Aug-22 12:45 165 5 gusting 13 14.4
2019-Aug-22 12:30 178 1 gusting 6 14.4
2019-Aug-22 12:15 212 1 gusting 5 14.4
2019-Aug-22 12:00 190 3 gusting 10 14.4
2019-Aug-22 11:45 209 1 gusting 9 14.4
2019-Aug-22 11:15 182 3 gusting 11 15.0
2019-Aug-22 11:00 155 0 gusting 7 14.4
2019-Aug-22 10:45 159 0 gusting 6 14.4
2019-Aug-22 10:30 191 14.4
2019-Aug-22 10:17 191 14.4
2019-Aug-22 10:01 199 14.4
2019-Aug-22 09:46 199 15.0
2019-Aug-22 09:31 199 15.0
2019-Aug-22 09:17 183 15.0
2019-Aug-22 09:01 210 1 gusting 4 15.0
2019-Aug-22 08:47 201 13.9
2019-Aug-22 08:32 201 12.8
2019-Aug-22 08:16 201 11.7
2019-Aug-22 08:01 201 11.7